Tracking 20383 objects as of 23-Feb-2020
HD Live streaming from Space Station
objects crossing your sky now
Track the group of recently launched Starlink satellites

KX-09

Track KX-09 now!
10-day predictions


NORAD ID: 44520
Int'l Code: 2019-058B
Perigee: 597.3 km
Apogee: 616.0 km
Inclination: 97.8 °
Period: 96.7 minutes
Semi major axis: 6977 km
RCS: Unknown
Launch date: August 30, 2019
Source: People's Republic of China (PRC)
Launch site: Jiuquan Satellite Launch Center, China (JSC)
aabbcc
Your satellite tracking list
Your tracking list is empty




NASA's NSSDC Master Catalog

Two Line Element Set (TLE):
1 44520U 19058B   20054.37910060  .00000257  00000-0  32710-4 0  9996
2 44520  97.7908  62.5628 0013389  69.9227 290.3438 14.89508775 26264
Source of the keplerian elements: AFSPC